START_TIME,STEP,MOV.,M29,t_acc.,H22,t_acc.,H26,t_acc.,H30,t_acc.
1979-02-28 21:00:21.350 ,1,1,0.,24.0,0.,24.0,0.,24.0,0.,24.0
1979-02-28 21:00:45.350 ,2,1,0.,24.0,0.,24.0,0.,24.0,0.,24.0
1979-02-28 21:01:09.350 ,3,1,0.,24.0,0.,24.0,0.,24.0,0.,24.0
1979-02-28 21:01:33.350 ,4,1,0.,24.0,0.,24.0,0.,24.0,0.,24.0
1979-02-28 21:01:57.350 ,5,1,0.,24.0,0.,24.0,0.,24.0,0.,24.0
1979-02-28 21:02:21.350 ,6,1,0.,24.0,0.,24.0,0.,24.0,0.,24.0
1979-02-28 21:02:45.350 ,7,1,0.,24.0,0.,24.0,0.,24.0,0.,24.0
1979-02-28 21:03:09.350 ,7,1,0.,24.0,0.,24.0,0.,24.0,0.,24.0
1979-02-28 21:03:33.350 ,6,1,0.,24.0,0.,24.0,0.,24.0,0.,24.0
1979-02-28 21:03:57.350 ,5,1,0.,24.0,0.,24.0,0.,24.0,0.,24.0
1979-02-28 21:04:21.350 ,4,1,0.,24.0,0.,24.0,0.,24.0,0.,24.0
1979-02-28 21:04:45.350 ,3,1,0.,24.0,0.,24.0,0.,24.0,0.,24.0
1979-02-28 21:05:09.350 ,2,1,0.,24.0,0.,24.0,0.,24.0,0.,24.0
1979-02-28 21:05:33.350 ,1,1,0.,24.0,0.,24.0,0.,24.0,0.,24.0
1979-02-28 21:05:57.350 ,0,1,0.,24.0,0.,24.0,0.,24.0,0.,24.0
1979-02-28 21:06:21.350 ,0,1,0.,24.0,0.,24.0,0.,24.0,0.,24.0
1979-02-28 21:06:45.350 ,1,1,0.,24.0,0.,24.0,0.,24.0,0.,24.0
1979-02-28 21:07:09.350 ,2,1,0.,24.0,0.,24.0,0.,24.0,0.,24.0
1979-02-28 21:07:33.350 ,3,1,0.,24.0,0.,24.0,0.,24.0,0.,24.0
1979-02-28 21:07:57.350 ,4,1,0.,24.0,0.,24.0,0.,24.0,0.,24.0
1979-02-28 21:08:21.350 ,5,1,0.,24.0,0.,24.0,0.,24.0,0.,24.0
1979-02-28 21:08:45.350 ,6,1,0.,24.0,0.,24.0,0.,24.0,0.,24.0
1979-02-28 21:09:09.350 ,7,1,0.,24.0,0.,24.0,0.,24.0,0.,24.0
1979-02-28 21:09:33.350 ,7,1,0.,24.0,0.,24.0,0.,24.0,0.,24.0
1979-02-28 21:09:57.350 ,6,1,0.,24.0,0.,24.0,0.,24.0,0.,24.0
1979-02-28 21:10:21.350 ,5,1,0.,24.0,0.,24.0,0.,24.0,0.,24.0
1979-02-28 21:10:45.350 ,4,1,0.,24.0,0.,24.0,0.,24.0,0.,24.0
1979-02-28 21:11:09.350 ,3,1,0.,24.0,0.,24.0,0.,24.0,0.,24.0
1979-02-28 21:11:33.350 ,2,1,0.,24.0,0.,24.0,0.,24.0,0.,24.0
1979-02-28 21:11:57.350 ,1,1,0.,24.0,0.,24.0,0.,24.0,0.,24.0
1979-02-28 21:12:21.350 ,0,1,0.,24.0,0.,24.0,0.,24.0,0.,24.0
1979-02-28 21:12:45.350 ,0,1,0.,24.0,0.,24.0,0.,24.0,0.,24.0
1979-02-28 21:13:09.350 ,1,1,0.,24.0,0.,24.0,0.,24.0,0.,24.0
1979-02-28 21:13:33.350 ,2,1,0.,24.0,0.,24.0,0.,24.0,0.,24.0
1979-02-28 21:13:57.350 ,3,1,0.,24.0,0.,24.0,0.,24.0,0.,24.0
1979-02-28 21:14:21.350 ,4,1,0.,24.0,0.,24.0,0.,24.0,0.,24.0
1979-02-28 21:14:45.350 ,5,1,0.,24.0,0.,24.0,0.,24.0,0.,24.0
1979-02-28 21:15:09.350 ,6,1,0.,24.0,0.,24.0,0.,24.0,0.,24.0
1979-02-28 21:15:33.350 ,7,1,0.,24.0,0.,24.0,0.,24.0,0.,24.0
1979-02-28 21:15:57.350 ,7,1,0.,24.0,0.,24.0,0.,24.0,0.,24.0
1979-02-28 21:16:21.350 ,6,1,0.,24.0,0.,24.0,0.,24.0,0.,24.0
1979-02-28 21:16:45.350 ,5,1,0.,24.0,0.,24.0,0.,24.0,0.,24.0
1979-02-28 21:17:09.340 ,4,1,0.,24.0,0.,24.0,0.,24.0,0.,24.0
1979-02-28 21:17:33.340 ,3,1,0.,24.0,0.,24.0,0.,24.0,0.,24.0
1979-02-28 21:17:57.340 ,2,1,1.,24.0,0.,24.0,0.,24.0,0.,24.0
1979-02-28 21:18:21.340 ,1,1,0.,24.0,0.,24.0,0.,24.0,0.,24.0
1979-02-28 21:18:45.340 ,0,1,0.,24.0,0.,24.0,0.,24.0,0.,24.0
1979-02-28 21:19:09.340 ,0,1,0.,24.0,0.,24.0,0.,24.0,0.,24.0
1979-02-28 21:19:33.340 ,1,1,0.,24.0,0.,24.0,0.,24.0,0.,24.0
1979-02-28 21:19:57.340 ,2,1,0.,24.0,0.,24.0,0.,24.0,0.,24.0
1979-02-28 21:20:21.340 ,3,1,0.,24.0,0.,24.0,0.,24.0,0.,24.0
1979-02-28 21:20:45.340 ,4,1,0.,24.0,0.,24.0,0.,24.0,0.,24.0
1979-02-28 21:21:09.340 ,5,1,0.,24.0,0.,24.0,0.,24.0,0.,24.0
1979-02-28 21:21:33.340 ,6,1,0.,24.0,0.,24.0,0.,24.0,0.,24.0
1979-02-28 21:21:57.340 ,7,1,0.,24.0,0.,24.0,0.,24.0,0.,24.0
1979-02-28 21:22:21.340 ,7,1,0.,24.0,0.,24.0,0.,24.0,0.,24.0
1979-02-28 21:22:45.340 ,6,1,0.,24.0,0.,24.0,0.,24.0,0.,24.0
1979-02-28 21:23:09.340 ,5,1,0.,24.0,0.,24.0,0.,24.0,0.,24.0
1979-02-28 21:23:33.340 ,4,1,0.,24.0,0.,24.0,0.,24.0,0.,24.0
1979-02-28 21:23:57.340 ,3,1,0.,24.0,0.,24.0,0.,24.0,0.,24.0
1979-02-28 21:24:21.340 ,2,1,0.,24.0,0.,24.0,0.,24.0,0.,24.0
1979-02-28 21:24:45.340 ,1,1,0.,24.0,0.,24.0,0.,24.0,0.,24.0
1979-02-28 21:25:09.340 ,0,1,0.,24.0,0.,24.0,0.,24.0,0.,24.0
1979-02-28 21:25:33.340 ,0,1,0.,24.0,0.,24.0,0.,24.0,0.,24.0
1979-02-28 21:25:57.340 ,1,1,0.,24.0,0.,24.0,0.,24.0,0.,24.0
1979-02-28 21:26:21.340 ,2,1,0.,24.0,0.,24.0,0.,24.0,0.,24.0
1979-02-28 21:26:45.340 ,3,1,0.,24.0,0.,24.0,0.,24.0,0.,24.0
1979-02-28 21:27:09.340 ,4,1,0.,24.0,0.,24.0,0.,24.0,0.,24.0
1979-02-28 21:27:33.340 ,5,1,0.,24.0,0.,24.0,0.,24.0,0.,24.0
1979-02-28 21:27:57.340 ,6,1,0.,24.0,0.,24.0,0.,24.0,0.,24.0
1979-02-28 21:28:21.340 ,7,1,0.,24.0,0.,24.0,0.,24.0,0.,24.0
1979-02-28 21:28:45.340 ,7,1,0.,24.0,0.,24.0,0.,24.0,0.,24.0
1979-02-28 21:29:09.340 ,6,1,0.,24.0,0.,24.0,0.,24.0,0.,24.0
1979-02-28 21:29:33.340 ,5,1,0.,24.0,0.,24.0,0.,24.0,0.,24.0
1979-02-28 21:29:57.340 ,4,1,0.,24.0,0.,24.0,0.,24.0,0.,24.0
1979-02-28 21:30:21.340 ,3,1,1.,24.0,0.,24.0,0.,24.0,0.,24.0
1979-02-28 21:30:45.340 ,2,1,0.,24.0,0.,24.0,0.,24.0,0.,24.0
1979-02-28 21:31:09.340 ,1,1,0.,24.0,0.,24.0,0.,24.0,0.,24.0
1979-02-28 21:31:33.340 ,0,1,0.,24.0,0.,24.0,0.,24.0,0.,24.0
1979-02-28 21:31:57.340 ,0,1,0.,24.0,0.,24.0,0.,24.0,0.,24.0
1979-02-28 21:32:21.340 ,1,1,0.,24.0,0.,24.0,0.,24.0,0.,24.0
1979-02-28 21:32:45.340 ,2,1,0.,24.0,0.,24.0,0.,24.0,0.,24.0
1979-02-28 21:33:09.340 ,3,1,0.,24.0,0.,24.0,0.,24.0,0.,24.0
1979-02-28 21:33:33.340 ,4,1,0.,24.0,0.,24.0,0.,24.0,0.,24.0
1979-02-28 21:33:57.340 ,5,1,0.,24.0,0.,24.0,0.,24.0,0.,24.0
1979-02-28 21:34:21.340 ,6,1,0.,24.0,0.,24.0,0.,24.0,0.,24.0
1979-02-28 21:34:45.340 ,7,1,0.,24.0,0.,24.0,0.,24.0,0.,24.0
1979-02-28 21:35:09.340 ,7,1,0.,24.0,0.,24.0,0.,24.0,0.,24.0
1979-02-28 21:35:33.340 ,6,1,0.,24.0,0.,24.0,0.,24.0,0.,24.0
1979-02-28 21:35:57.340 ,5,1,0.,24.0,0.,24.0,0.,24.0,0.,24.0
1979-02-28 21:36:21.340 ,4,1,0.,24.0,0.,24.0,0.,24.0,0.,24.0
1979-02-28 21:36:45.340 ,3,1,0.,24.0,0.,24.0,0.,24.0,0.,24.0
1979-02-28 21:37:09.340 ,2,1,0.,24.0,0.,24.0,0.,24.0,0.,24.0
1979-02-28 21:37:33.340 ,1,1,0.,24.0,0.,24.0,0.,24.0,0.,24.0
1979-02-28 21:37:57.340 ,0,1,0.,24.0,0.,24.0,0.,24.0,0.,24.0
1979-02-28 21:38:21.340 ,0,1,0.,24.0,0.,24.0,0.,24.0,0.,24.0
1979-02-28 21:38:45.340 ,1,1,0.,24.0,0.,24.0,0.,24.0,0.,24.0
1979-02-28 21:39:09.340 ,2,1,0.,24.0,0.,24.0,0.,24.0,0.,24.0
1979-02-28 21:39:33.340 ,3,1,0.,24.0,0.,24.0,0.,24.0,0.,24.0
1979-02-28 21:39:57.340 ,4,1,0.,24.0,0.,24.0,0.,24.0,0.,24.0
1979-02-28 21:40:21.340 ,5,1,0.,24.0,0.,24.0,0.,24.0,0.,24.0
1979-02-28 21:40:45.340 ,6,1,0.,24.0,0.,24.0,0.,24.0,0.,24.0
1979-02-28 21:41:09.340 ,7,1,0.,24.0,0.,24.0,0.,24.0,0.,24.0
1979-02-28 21:41:33.340 ,7,1,0.,24.0,0.,24.0,0.,24.0,0.,24.0
1979-02-28 21:41:57.340 ,6,1,0.,24.0,0.,24.0,0.,24.0,0.,24.0
1979-02-28 21:42:21.340 ,5,1,0.,24.0,0.,24.0,0.,24.0,0.,24.0
1979-02-28 21:42:45.340 ,4,1,0.,24.0,0.,24.0,0.,24.0,0.,24.0
1979-02-28 21:43:09.340 ,3,1,0.,24.0,0.,24.0,0.,24.0,0.,24.0
1979-02-28 21:43:33.340 ,2,1,0.,24.0,0.,24.0,0.,24.0,0.,24.0
1979-02-28 21:43:57.340 ,1,1,1.,24.0,0.,24.0,0.,24.0,0.,24.0
1979-02-28 21:44:21.340 ,0,1,0.,24.0,0.,24.0,0.,24.0,0.,24.0
1979-02-28 21:44:45.350 ,0,1,0.,24.0,0.,24.0,0.,24.0,0.,24.0
1979-02-28 21:45:09.350 ,1,1,0.,24.0,0.,24.0,0.,24.0,0.,24.0
1979-02-28 21:45:33.350 ,2,1,1.,24.0,0.,24.0,0.,24.0,0.,24.0
1979-02-28 21:45:57.350 ,3,1,0.,24.0,0.,24.0,0.,24.0,0.,24.0
1979-02-28 21:46:21.350 ,4,1,0.,24.0,0.,24.0,0.,24.0,0.,24.0
1979-02-28 21:46:45.350 ,5,1,0.,24.0,0.,24.0,0.,24.0,0.,24.0
1979-02-28 21:47:09.350 ,6,1,0.,24.0,0.,24.0,0.,24.0,0.,24.0
1979-02-28 21:47:33.350 ,7,1,0.,24.0,0.,24.0,0.,24.0,0.,24.0
1979-02-28 21:47:57.350 ,7,1,0.,24.0,0.,24.0,0.,24.0,0.,24.0
1979-02-28 21:48:21.350 ,6,1,0.,24.0,0.,24.0,0.,24.0,0.,24.0
1979-02-28 21:48:45.350 ,5,1,0.,24.0,0.,24.0,0.,24.0,0.,24.0
1979-02-28 21:49:09.350 ,4,1,0.,24.0,0.,24.0,0.,24.0,0.,24.0
1979-02-28 21:49:33.350 ,3,1,0.,24.0,0.,24.0,0.,24.0,0.,24.0
1979-02-28 21:49:57.350 ,2,1,0.,24.0,0.,24.0,0.,24.0,0.,24.0
1979-02-28 21:50:21.350 ,1,1,1.,24.0,0.,24.0,0.,24.0,0.,24.0
1979-02-28 21:50:45.350 ,0,1,0.,24.0,0.,24.0,0.,24.0,0.,24.0
1979-02-28 21:51:09.350 ,0,1,0.,24.0,0.,24.0,0.,24.0,0.,24.0
1979-02-28 21:51:33.350 ,1,1,0.,24.0,0.,24.0,0.,24.0,0.,24.0
1979-02-28 21:51:57.350 ,2,1,0.,24.0,0.,24.0,0.,24.0,0.,24.0
1979-02-28 21:52:21.350 ,3,1,0.,24.0,0.,24.0,0.,24.0,0.,24.0
1979-02-28 21:52:45.350 ,4,1,0.,24.0,0.,24.0,0.,24.0,0.,24.0
1979-02-28 21:53:09.350 ,5,1,0.,24.0,0.,24.0,0.,24.0,0.,24.0
1979-02-28 21:53:33.350 ,6,1,0.,24.0,0.,24.0,0.,24.0,0.,24.0
1979-02-28 21:53:57.350 ,7,1,0.,24.0,0.,24.0,0.,24.0,0.,24.0
1979-02-28 21:54:21.350 ,7,1,0.,24.0,0.,24.0,0.,24.0,0.,24.0
1979-02-28 21:54:45.350 ,6,1,0.,24.0,0.,24.0,0.,24.0,0.,24.0
1979-02-28 21:55:09.350 ,5,1,0.,24.0,0.,24.0,0.,24.0,0.,24.0
1979-02-28 21:55:33.350 ,4,1,0.,24.0,0.,24.0,0.,24.0,0.,24.0
1979-02-28 21:55:57.350 ,3,1,0.,24.0,0.,24.0,0.,24.0,0.,24.0
1979-02-28 21:56:21.350 ,2,1,0.,24.0,0.,24.0,0.,24.0,0.,24.0
1979-02-28 21:56:45.350 ,1,1,0.,24.0,0.,24.0,0.,24.0,0.,24.0
1979-02-28 21:57:09.350 ,0,1,0.,24.0,0.,24.0,0.,24.0,0.,24.0
1979-02-28 21:57:33.350 ,0,1,0.,24.0,0.,24.0,0.,24.0,0.,24.0
1979-02-28 21:57:57.350 ,1,1,0.,24.0,0.,24.0,0.,24.0,0.,24.0
1979-02-28 21:58:21.350 ,2,1,0.,24.0,0.,24.0,0.,24.0,0.,24.0
1979-02-28 21:58:45.350 ,3,1,0.,24.0,0.,24.0,0.,24.0,0.,24.0
1979-02-28 21:59:09.350 ,4,1,0.,24.0,0.,24.0,0.,24.0,0.,24.0
1979-02-28 21:59:33.350 ,5,1,0.,24.0,0.,24.0,0.,24.0,0.,24.0
1979-02-28 21:59:57.350 ,6,1,0.,24.0,0.,24.0,0.,24.0,0.,24.0
1979-02-28 22:00:21.350 ,7,1,0.,24.0,0.,24.0,0.,24.0,0.,24.0
1979-02-28 22:00:45.350 ,7,1,0.,24.0,0.,24.0,0.,24.0,0.,24.0
1979-02-28 22:01:09.350 ,6,1,0.,24.0,0.,24.0,0.,24.0,0.,24.0
1979-02-28 22:01:33.350 ,5,1,0.,24.0,0.,24.0,0.,24.0,0.,24.0
1979-02-28 22:01:57.350 ,4,1,0.,24.0,0.,24.0,0.,24.0,0.,24.0
1979-02-28 22:02:21.350 ,3,1,0.,24.0,0.,24.0,0.,24.0,0.,24.0
1979-02-28 22:02:45.350 ,2,1,0.,24.0,0.,24.0,0.,24.0,0.,24.0
1979-02-28 22:03:09.350 ,1,1,0.,24.0,0.,24.0,0.,24.0,0.,24.0
1979-02-28 22:03:33.350 ,0,1,0.,24.0,0.,24.0,0.,24.0,0.,24.0
1979-02-28 22:03:57.350 ,0,1,0.,24.0,0.,24.0,0.,24.0,0.,24.0
1979-02-28 22:04:21.350 ,1,1,0.,24.0,0.,24.0,0.,24.0,0.,24.0
1979-02-28 22:04:45.350 ,2,1,0.,24.0,0.,24.0,0.,24.0,0.,24.0
1979-02-28 22:05:09.350 ,3,1,0.,24.0,0.,24.0,0.,24.0,0.,24.0
1979-02-28 22:05:33.350 ,4,1,0.,24.0,0.,24.0,0.,24.0,0.,24.0
1979-02-28 22:05:57.350 ,5,1,0.,24.0,0.,24.0,0.,24.0,0.,24.0
1979-02-28 22:06:21.350 ,6,1,0.,24.0,0.,24.0,0.,24.0,0.,24.0
1979-02-28 22:06:45.350 ,7,1,0.,24.0,0.,24.0,0.,24.0,0.,24.0
1979-02-28 22:07:09.350 ,7,1,0.,24.0,0.,24.0,0.,24.0,0.,24.0
1979-02-28 22:07:33.350 ,6,1,0.,24.0,0.,24.0,0.,24.0,0.,24.0
1979-02-28 22:07:57.350 ,5,1,0.,24.0,0.,24.0,0.,24.0,0.,24.0
1979-02-28 22:08:21.350 ,4,1,0.,24.0,0.,24.0,0.,24.0,0.,24.0
1979-02-28 22:08:45.350 ,3,1,0.,24.0,0.,24.0,0.,24.0,0.,24.0
1979-02-28 22:09:09.350 ,2,1,0.,24.0,0.,24.0,0.,24.0,0.,24.0
1979-02-28 22:09:33.350 ,1,1,0.,24.0,0.,24.0,0.,24.0,0.,24.0
1979-02-28 22:09:57.350 ,0,1,0.,24.0,0.,24.0,0.,24.0,0.,24.0
1979-02-28 22:10:21.350 ,0,1,0.,24.0,0.,24.0,0.,24.0,0.,24.0
1979-02-28 22:10:45.350 ,1,1,0.,24.0,0.,24.0,0.,24.0,0.,24.0
1979-02-28 22:11:09.350 ,2,1,0.,24.0,0.,24.0,0.,24.0,0.,24.0
1979-02-28 22:11:33.350 ,3,1,0.,24.0,0.,24.0,0.,24.0,0.,24.0
1979-02-28 22:11:57.350 ,4,1,0.,24.0,0.,24.0,0.,24.0,0.,24.0
1979-02-28 22:12:21.350 ,5,1,0.,24.0,0.,24.0,0.,24.0,0.,24.0
1979-02-28 22:12:45.350 ,6,1,0.,24.0,0.,24.0,0.,24.0,0.,24.0
1979-02-28 22:13:09.350 ,7,1,0.,24.0,0.,24.0,0.,24.0,0.,24.0
1979-02-28 22:13:33.350 ,7,1,0.,24.0,0.,24.0,0.,24.0,0.,24.0
1979-02-28 22:13:57.350 ,6,1,0.,24.0,0.,24.0,0.,24.0,0.,24.0
1979-02-28 22:14:21.350 ,5,1,0.,24.0,0.,24.0,0.,24.0,0.,24.0
1979-02-28 22:14:45.350 ,4,1,0.,24.0,0.,24.0,0.,24.0,0.,24.0
1979-02-28 22:15:09.350 ,3,1,0.,24.0,0.,24.0,0.,24.0,0.,24.0
1979-02-28 22:15:33.350 ,2,1,0.,24.0,0.,24.0,0.,24.0,0.,24.0
1979-02-28 22:15:57.350 ,1,1,0.,24.0,0.,24.0,0.,24.0,0.,24.0
1979-02-28 22:16:21.350 ,0,1,0.,24.0,0.,24.0,0.,24.0,0.,24.0
1979-02-28 22:16:45.350 ,0,1,0.,24.0,0.,24.0,0.,24.0,0.,24.0
1979-02-28 22:17:09.350 ,1,1,0.,24.0,0.,24.0,0.,24.0,0.,24.0
1979-02-28 22:17:33.350 ,2,1,0.,24.0,0.,24.0,0.,24.0,0.,24.0
1979-02-28 22:17:57.350 ,3,1,0.,24.0,0.,24.0,0.,24.0,0.,24.0
1979-02-28 22:18:21.350 ,4,1,0.,24.0,0.,24.0,0.,24.0,0.,24.0
1979-02-28 22:18:45.350 ,5,1,0.,24.0,0.,24.0,0.,24.0,0.,24.0
1979-02-28 22:19:09.350 ,6,1,0.,24.0,0.,24.0,0.,24.0,0.,24.0
1979-02-28 22:19:33.350 ,7,1,0.,24.0,0.,24.0,0.,24.0,0.,24.0
1979-02-28 22:19:57.350 ,7,1,0.,24.0,0.,24.0,0.,24.0,0.,24.0
1979-02-28 22:20:21.350 ,6,1,0.,24.0,0.,24.0,0.,24.0,0.,24.0
1979-02-28 22:20:45.350 ,5,1,0.,24.0,0.,24.0,0.,24.0,0.,24.0
1979-02-28 22:21:09.350 ,4,1,0.,24.0,0.,24.0,0.,24.0,0.,24.0
1979-02-28 22:21:33.350 ,3,1,0.,24.0,0.,24.0,0.,24.0,0.,24.0
1979-02-28 22:21:57.350 ,2,1,0.,24.0,0.,24.0,0.,24.0,0.,24.0
1979-02-28 22:22:21.350 ,1,1,0.,24.0,0.,24.0,0.,24.0,0.,24.0
1979-02-28 22:22:45.350 ,0,1,0.,24.0,0.,24.0,0.,24.0,0.,24.0
1979-02-28 22:23:09.350 ,0,1,0.,24.0,0.,24.0,0.,24.0,0.,24.0
1979-02-28 22:23:33.350 ,1,1,0.,24.0,0.,24.0,0.,24.0,0.,24.0
1979-02-28 22:23:57.350 ,2,1,0.,24.0,0.,24.0,0.,24.0,0.,24.0
1979-02-28 22:24:21.350 ,3,1,0.,24.0,0.,24.0,0.,24.0,0.,24.0
1979-02-28 22:24:45.350 ,4,1,0.,24.0,0.,24.0,0.,24.0,0.,24.0
1979-02-28 22:25:09.350 ,5,1,0.,24.0,0.,24.0,0.,24.0,0.,24.0
1979-02-28 22:25:33.350 ,6,1,0.,24.0,0.,24.0,0.,24.0,0.,24.0
1979-02-28 22:25:57.350 ,7,1,0.,24.0,0.,24.0,0.,24.0,0.,24.0
1979-02-28 22:26:21.350 ,7,1,0.,24.0,0.,24.0,0.,24.0,0.,24.0
1979-02-28 22:26:45.350 ,6,1,0.,24.0,0.,24.0,0.,24.0,0.,24.0
1979-02-28 22:27:09.350 ,5,1,0.,24.0,0.,24.0,0.,24.0,0.,24.0
1979-02-28 22:27:33.350 ,4,1,0.,24.0,0.,24.0,0.,24.0,0.,24.0
1979-02-28 22:27:57.350 ,3,1,0.,24.0,0.,24.0,0.,24.0,0.,24.0
1979-02-28 22:28:21.350 ,2,1,0.,24.0,0.,24.0,0.,24.0,0.,24.0
1979-02-28 22:28:45.350 ,1,1,0.,24.0,0.,24.0,0.,24.0,0.,24.0
1979-02-28 22:29:09.350 ,0,1,0.,24.0,0.,24.0,0.,24.0,0.,24.0
1979-02-28 22:29:33.350 ,0,1,0.,24.0,0.,24.0,0.,24.0,0.,24.0
1979-02-28 22:29:57.350 ,1,1,0.,24.0,0.,24.0,0.,24.0,0.,24.0
1979-02-28 22:30:21.350 ,2,1,0.,24.0,0.,24.0,0.,24.0,0.,24.0
1979-02-28 22:30:45.350 ,3,1,0.,24.0,0.,24.0,0.,24.0,0.,24.0
1979-02-28 22:31:09.350 ,4,1,0.,24.0,0.,24.0,0.,24.0,0.,24.0
1979-02-28 22:31:33.350 ,5,1,0.,24.0,0.,24.0,0.,24.0,0.,24.0
1979-02-28 22:31:57.350 ,6,1,0.,24.0,0.,24.0,0.,24.0,0.,24.0
1979-02-28 22:32:21.350 ,7,1,0.,24.0,0.,24.0,0.,24.0,0.,24.0
1979-02-28 22:32:45.350 ,7,1,0.,24.0,0.,24.0,0.,24.0,0.,24.0
1979-02-28 22:33:09.350 ,6,1,0.,24.0,0.,24.0,0.,24.0,0.,24.0
1979-02-28 22:33:33.350 ,5,1,0.,24.0,0.,24.0,0.,24.0,0.,24.0
1979-02-28 22:33:57.350 ,4,1,0.,24.0,0.,24.0,0.,24.0,0.,24.0
1979-02-28 22:34:21.350 ,3,1,0.,24.0,0.,24.0,0.,24.0,0.,24.0
1979-02-28 22:34:45.350 ,2,1,0.,24.0,0.,24.0,0.,24.0,0.,24.0
1979-02-28 22:35:09.350 ,1,1,0.,24.0,0.,24.0,0.,24.0,0.,24.0
1979-02-28 22:35:33.350 ,0,1,0.,24.0,0.,24.0,0.,24.0,0.,24.0
1979-02-28 22:35:57.350 ,0,1,0.,24.0,0.,24.0,0.,24.0,0.,24.0
1979-02-28 22:36:21.350 ,1,1,0.,24.0,0.,24.0,0.,24.0,0.,24.0
1979-02-28 22:36:45.350 ,2,1,0.,24.0,0.,24.0,0.,24.0,0.,24.0
1979-02-28 22:37:09.350 ,3,1,0.,24.0,0.,24.0,0.,24.0,0.,24.0
1979-02-28 22:37:33.350 ,4,1,0.,24.0,0.,24.0,0.,24.0,0.,24.0
1979-02-28 22:37:57.350 ,5,1,0.,24.0,0.,24.0,0.,24.0,0.,24.0
1979-02-28 22:38:21.350 ,6,1,0.,24.0,0.,24.0,0.,24.0,0.,24.0
1979-02-28 22:38:45.350 ,7,1,1.,24.0,0.,24.0,0.,24.0,0.,24.0
1979-02-28 22:39:09.350 ,7,1,0.,24.0,0.,24.0,0.,24.0,0.,24.0
1979-02-28 22:39:33.350 ,6,1,0.,24.0,0.,24.0,0.,24.0,0.,24.0
1979-02-28 22:39:57.350 ,5,1,0.,24.0,0.,24.0,0.,24.0,0.,24.0
1979-02-28 22:40:21.350 ,4,1,0.,24.0,0.,24.0,0.,24.0,0.,24.0
1979-02-28 22:40:45.350 ,3,1,0.,24.0,0.,24.0,0.,24.0,0.,24.0
1979-02-28 22:41:09.350 ,2,1,0.,24.0,0.,24.0,0.,24.0,0.,24.0
1979-02-28 22:41:33.350 ,1,1,0.,24.0,0.,24.0,0.,24.0,0.,24.0
1979-02-28 22:41:57.350 ,0,1,0.,24.0,0.,24.0,0.,24.0,0.,24.0
1979-02-28 22:42:21.350 ,0,1,0.,24.0,0.,24.0,0.,24.0,0.,24.0
1979-02-28 22:42:45.350 ,1,1,0.,24.0,0.,24.0,0.,24.0,0.,24.0
1979-02-28 22:43:09.350 ,2,1,0.,24.0,0.,24.0,0.,24.0,0.,24.0
1979-02-28 22:43:33.350 ,3,1,0.,24.0,0.,24.0,0.,24.0,0.,24.0
1979-02-28 22:43:57.350 ,4,1,0.,24.0,0.,24.0,0.,24.0,0.,24.0
1979-02-28 22:44:21.350 ,5,1,0.,24.0,0.,24.0,0.,24.0,0.,24.0
1979-02-28 22:44:45.350 ,6,1,0.,24.0,0.,24.0,0.,24.0,0.,24.0
1979-02-28 22:45:09.350 ,7,1,0.,24.0,0.,24.0,0.,24.0,0.,24.0
1979-02-28 22:45:33.350 ,7,1,0.,24.0,0.,24.0,0.,24.0,0.,24.0
1979-02-28 22:45:57.350 ,6,1,0.,24.0,0.,24.0,0.,24.0,0.,24.0
1979-02-28 22:46:21.350 ,5,1,0.,24.0,0.,24.0,0.,24.0,0.,24.0
1979-02-28 22:46:45.350 ,4,1,0.,24.0,0.,24.0,0.,24.0,0.,24.0
1979-02-28 22:47:09.350 ,3,1,0.,24.0,0.,24.0,0.,24.0,0.,24.0
1979-02-28 22:47:33.350 ,2,1,0.,24.0,0.,24.0,0.,24.0,0.,24.0
1979-02-28 22:47:57.350 ,1,1,0.,24.0,0.,24.0,0.,24.0,0.,24.0
1979-02-28 22:48:21.350 ,0,1,0.,24.0,0.,24.0,0.,24.0,0.,24.0
1979-02-28 22:48:45.350 ,0,1,0.,24.0,0.,24.0,0.,24.0,0.,24.0
1979-02-28 22:49:09.350 ,1,1,0.,24.0,0.,24.0,0.,24.0,0.,24.0
1979-02-28 22:49:33.350 ,2,1,0.,24.0,0.,24.0,0.,24.0,0.,24.0
1979-02-28 22:49:57.350 ,3,1,0.,24.0,0.,24.0,0.,24.0,0.,24.0
1979-02-28 22:50:21.350 ,4,1,0.,24.0,0.,24.0,0.,24.0,0.,24.0
1979-02-28 22:50:45.350 ,5,1,0.,24.0,0.,24.0,0.,24.0,0.,24.0
1979-02-28 22:51:09.350 ,6,1,0.,24.0,0.,24.0,0.,24.0,0.,24.0
1979-02-28 22:51:33.350 ,7,1,0.,24.0,0.,24.0,0.,24.0,0.,24.0
1979-02-28 22:51:57.350 ,7,1,0.,24.0,0.,24.0,0.,24.0,0.,24.0
1979-02-28 22:52:21.350 ,6,1,0.,24.0,0.,24.0,0.,24.0,0.,24.0
1979-02-28 22:52:45.350 ,5,1,0.,24.0,0.,24.0,0.,24.0,0.,24.0
1979-02-28 22:53:09.350 ,4,1,0.,24.0,0.,24.0,0.,24.0,0.,24.0
1979-02-28 22:53:33.350 ,3,1,0.,24.0,0.,24.0,0.,24.0,0.,24.0
1979-02-28 22:53:57.350 ,2,1,0.,24.0,0.,24.0,0.,24.0,0.,24.0
1979-02-28 22:54:21.350 ,1,1,0.,24.0,0.,24.0,0.,24.0,0.,24.0
1979-02-28 22:54:45.350 ,0,1,0.,24.0,0.,24.0,0.,24.0,0.,24.0
1979-02-28 22:55:09.350 ,0,1,0.,24.0,0.,24.0,0.,24.0,0.,24.0
1979-02-28 22:55:33.350 ,1,1,0.,24.0,0.,24.0,0.,24.0,0.,24.0
1979-02-28 22:55:57.350 ,2,1,0.,24.0,0.,24.0,0.,24.0,0.,24.0
1979-02-28 22:56:21.350 ,3,1,0.,24.0,0.,24.0,0.,24.0,0.,24.0
1979-02-28 22:56:45.350 ,4,1,0.,24.0,0.,24.0,0.,24.0,0.,24.0
1979-02-28 22:57:09.350 ,5,1,0.,24.0,0.,24.0,0.,24.0,0.,24.0
1979-02-28 22:57:33.350 ,6,1,0.,24.0,0.,24.0,0.,24.0,0.,24.0
1979-02-28 22:57:57.350 ,7,1,0.,24.0,0.,24.0,0.,24.0,0.,24.0
1979-02-28 22:58:21.350 ,7,1,0.,24.0,0.,24.0,0.,24.0,0.,24.0
1979-02-28 22:58:45.350 ,6,1,0.,24.0,0.,24.0,0.,24.0,0.,24.0
1979-02-28 22:59:09.350 ,5,1,0.,24.0,0.,24.0,0.,24.0,0.,24.0
1979-02-28 22:59:33.350 ,4,1,0.,24.0,0.,24.0,0.,24.0,0.,24.0
1979-02-28 22:59:57.350 ,3,1,0.,24.0,0.,24.0,0.,24.0,0.,24.0
1979-02-28 23:00:21.350 ,2,1,0.,24.0,0.,24.0,0.,24.0,0.,24.0
1979-02-28 23:00:45.350 ,1,1,0.,24.0,0.,24.0,0.,24.0,0.,24.0
1979-02-28 23:01:09.350 ,0,1,1.,24.0,0.,24.0,0.,24.0,0.,24.0
1979-02-28 23:01:33.350 ,0,1,0.,24.0,0.,24.0,0.,24.0,0.,24.0
1979-02-28 23:01:57.350 ,1,1,0.,24.0,0.,24.0,0.,24.0,0.,24.0
1979-02-28 23:02:21.350 ,2,1,1.,24.0,0.,24.0,0.,24.0,0.,24.0
1979-02-28 23:02:45.350 ,3,1,0.,24.0,0.,24.0,0.,24.0,0.,24.0
1979-02-28 23:03:09.350 ,4,1,0.,24.0,0.,24.0,0.,24.0,0.,24.0
1979-02-28 23:03:33.350 ,5,1,0.,24.0,0.,24.0,0.,24.0,0.,24.0
1979-02-28 23:03:57.350 ,6,1,0.,24.0,0.,24.0,0.,24.0,0.,24.0
1979-02-28 23:04:21.350 ,7,1,0.,24.0,0.,24.0,0.,24.0,0.,24.0
1979-02-28 23:04:45.350 ,7,1,0.,24.0,0.,24.0,0.,24.0,0.,24.0
1979-02-28 23:05:09.350 ,6,1,1.,24.0,0.,24.0,0.,24.0,0.,24.0
1979-02-28 23:05:33.350 ,5,1,0.,24.0,0.,24.0,0.,24.0,0.,24.0
1979-02-28 23:05:57.350 ,4,1,0.,24.0,0.,24.0,0.,24.0,0.,24.0
1979-02-28 23:06:21.350 ,3,1,0.,24.0,0.,24.0,0.,24.0,0.,24.0
1979-02-28 23:06:45.350 ,2,1,0.,24.0,0.,24.0,0.,24.0,0.,24.0
1979-02-28 23:07:09.350 ,1,1,0.,24.0,0.,24.0,0.,24.0,0.,24.0
1979-02-28 23:07:33.350 ,0,1,0.,24.0,0.,24.0,0.,24.0,0.,24.0
1979-02-28 23:07:57.350 ,0,1,0.,24.0,0.,24.0,0.,24.0,0.,24.0
1979-02-28 23:08:21.350 ,1,1,0.,24.0,0.,24.0,0.,24.0,0.,24.0
1979-02-28 23:08:45.350 ,2,1,0.,24.0,0.,24.0,0.,24.0,1.,24.0
1979-02-28 23:09:09.350 ,3,1,0.,24.0,0.,24.0,0.,24.0,0.,24.0
1979-02-28 23:09:33.350 ,4,1,0.,24.0,0.,24.0,0.,24.0,0.,24.0
1979-02-28 23:09:57.350 ,5,1,0.,24.0,0.,24.0,0.,24.0,0.,24.0
1979-02-28 23:10:21.350 ,6,1,0.,24.0,0.,24.0,0.,24.0,0.,24.0
1979-02-28 23:10:45.350 ,7,1,0.,24.0,0.,24.0,0.,24.0,0.,24.0
1979-02-28 23:11:09.350 ,7,1,0.,24.0,0.,24.0,0.,24.0,0.,24.0
1979-02-28 23:11:33.350 ,6,1,0.,24.0,0.,24.0,0.,24.0,0.,24.0
1979-02-28 23:11:57.350 ,5,1,0.,24.0,0.,24.0,0.,24.0,0.,24.0
1979-02-28 23:12:21.350 ,4,1,0.,24.0,0.,24.0,0.,24.0,0.,24.0
1979-02-28 23:12:45.350 ,3,1,0.,24.0,0.,24.0,0.,24.0,0.,24.0
1979-02-28 23:13:09.350 ,2,1,0.,24.0,0.,24.0,0.,24.0,0.,24.0
1979-02-28 23:13:33.350 ,1,1,0.,24.0,0.,24.0,0.,24.0,0.,24.0
1979-02-28 23:13:57.350 ,0,1,0.,24.0,0.,24.0,0.,24.0,0.,24.0
1979-02-28 23:14:21.350 ,0,1,0.,24.0,0.,24.0,0.,24.0,0.,24.0
1979-02-28 23:14:45.350 ,1,1,0.,24.0,0.,24.0,0.,24.0,0.,24.0
1979-02-28 23:15:09.350 ,2,1,0.,24.0,0.,24.0,0.,24.0,0.,24.0
1979-02-28 23:15:33.350 ,3,1,0.,24.0,0.,24.0,0.,24.0,0.,24.0
1979-02-28 23:15:57.350 ,4,1,0.,24.0,0.,24.0,0.,24.0,0.,24.0
1979-02-28 23:16:21.350 ,5,1,0.,24.0,0.,24.0,0.,24.0,0.,24.0
1979-02-28 23:16:45.350 ,6,1,1.,24.0,0.,24.0,0.,24.0,0.,24.0
1979-02-28 23:17:09.350 ,7,1,0.,24.0,0.,24.0,0.,24.0,0.,24.0
1979-02-28 23:17:33.350 ,7,1,0.,24.0,0.,24.0,0.,24.0,0.,24.0
1979-02-28 23:17:57.350 ,6,1,0.,24.0,0.,24.0,0.,24.0,0.,24.0
1979-02-28 23:18:21.350 ,5,1,0.,24.0,0.,24.0,0.,24.0,0.,24.0
1979-02-28 23:18:45.350 ,4,1,0.,24.0,0.,24.0,0.,24.0,0.,24.0
1979-02-28 23:19:09.350 ,3,1,0.,24.0,0.,24.0,0.,24.0,0.,24.0
1979-02-28 23:19:33.350 ,2,1,0.,24.0,0.,24.0,0.,24.0,0.,24.0
1979-02-28 23:19:57.350 ,1,1,0.,24.0,0.,24.0,0.,24.0,0.,24.0
1979-02-28 23:20:21.350 ,0,1,0.,24.0,0.,24.0,0.,24.0,0.,24.0
1979-02-28 23:20:45.350 ,0,1,0.,24.0,0.,24.0,0.,24.0,0.,24.0
1979-02-28 23:21:09.350 ,1,1,0.,24.0,0.,24.0,0.,24.0,0.,24.0
1979-02-28 23:21:33.350 ,2,1,0.,24.0,0.,24.0,0.,24.0,0.,24.0
1979-02-28 23:21:57.350 ,3,1,0.,24.0,0.,24.0,0.,24.0,0.,24.0
1979-02-28 23:22:21.350 ,4,1,0.,24.0,0.,24.0,0.,24.0,0.,24.0
1979-02-28 23:22:45.350 ,5,1,0.,24.0,0.,24.0,0.,24.0,0.,24.0
year-12-00 00:00:00.000 ,STEP,MOV.,M29,t_acc.,H22,t_acc.,H26,t_acc.,H30,t_acc.
1979-02-28 23:23:09.350 ,0,0,0.,24.0,0.,24.0,0.,24.0,0.,24.0
1979-02-28 23:23:33.350 ,7,1,0.,24.0,0.,24.0,0.,24.0,0.,24.0
1979-02-28 23:23:57.350 ,7,1,0.,24.0,0.,24.0,0.,24.0,0.,24.0
1979-02-28 23:24:21.350 ,6,1,0.,24.0,0.,24.0,0.,24.0,0.,24.0
1979-02-28 23:24:45.350 ,5,1,0.,24.0,0.,24.0,0.,24.0,0.,24.0
1979-02-28 23:25:09.350 ,4,1,0.,24.0,0.,24.0,0.,24.0,0.,24.0
1979-02-28 23:25:33.350 ,3,1,0.,24.0,0.,24.0,0.,24.0,0.,24.0
1979-02-28 23:25:57.350 ,2,1,0.,24.0,0.,24.0,0.,24.0,0.,24.0
1979-02-28 23:26:21.350 ,1,1,0.,24.0,0.,24.0,0.,24.0,0.,24.0
1979-02-28 23:26:45.350 ,0,1,0.,24.0,0.,24.0,0.,24.0,0.,24.0
1979-02-28 23:27:09.350 ,0,1,0.,24.0,0.,24.0,0.,24.0,0.,24.0
1979-02-28 23:27:33.350 ,1,1,0.,24.0,0.,24.0,0.,24.0,0.,24.0
1979-02-28 23:27:57.350 ,2,1,0.,24.0,0.,24.0,0.,24.0,0.,24.0
1979-02-28 23:28:21.350 ,3,1,0.,24.0,0.,24.0,0.,24.0,0.,24.0
1979-02-28 23:28:45.350 ,4,1,0.,24.0,0.,24.0,0.,24.0,0.,24.0
1979-02-28 23:29:09.350 ,5,1,0.,24.0,0.,24.0,0.,24.0,0.,24.0
1979-02-28 23:29:33.350 ,6,1,0.,24.0,0.,24.0,0.,24.0,0.,24.0
1979-02-28 23:29:57.350 ,7,1,0.,24.0,0.,24.0,0.,24.0,0.,24.0
1979-02-28 23:30:21.350 ,7,1,0.,24.0,0.,24.0,0.,24.0,0.,24.0
1979-02-28 23:30:45.350 ,6,1,0.,24.0,0.,24.0,0.,24.0,0.,24.0
1979-02-28 23:31:09.350 ,5,1,0.,24.0,0.,24.0,0.,24.0,0.,24.0
1979-02-28 23:31:33.350 ,4,1,0.,24.0,0.,24.0,0.,24.0,0.,24.0
1979-02-28 23:32:45.350 ,0,0,0.,24.0,0.,24.0,0.,24.0,0.,24.0
1979-02-28 23:33:09.350 ,0,1,0.,24.0,0.,24.0,0.,24.0,0.,24.0
1979-02-28 23:33:33.350 ,0,1,0.,24.0,0.,24.0,0.,24.0,0.,24.0
1979-02-28 23:33:57.350 ,1,1,0.,24.0,0.,24.0,0.,24.0,0.,24.0
1979-02-28 23:34:21.350 ,2,1,0.,24.0,0.,24.0,0.,24.0,0.,24.0